Regional Weather Roundup
Issued by NWS

Home | Current Version | Previous Version | Graphics & Text | Print | Product List | Glossary On
Versions: 1 2 3 4 5 6 7 8 9 10 11 12 13 14 15 16 17 18 19 20 21 22 23 24 25 26 27 28 29 30 31 32 33 34 35 36 37 38 39 40 41 42 43 44 45 46 47 48 49 50
000
ASUS43 KLMK 191010
RWRKY
KENTUCKY REGIONAL WEATHER ROUNDUP
NATIONAL WEATHER SERVICE LOUISVILLE KY
600 AM EDT FRI SEP 19 2014

NOTE "FAIR" INDICATES FEW OR NO CLOUDS BELOW 12,000 FEET
WITH NO SIGNIFICANT WEATHER AND/OR OBSTRUCTIONS TO VISIBILITY.

KYZ001>023-026-027-061>063-070>075-191100-
WESTERN AND SOUTH CENTRAL KENTUCKY

CITY           SKY/WX    TMP DP  RH WIND       PRES   REMARKS
PADUCAH        CLEAR     59  53  80 CALM      30.04S
HENDERSON      CLEAR     55  48  76 NE5       30.08S
OWENSBORO      CLEAR     59  52  77 E8        30.09R
HOPKINSVILLE   PTCLDY    55  55 100 NE5       30.05R
BOWLING GREEN  CLEAR     56  52  86 NE5       30.07R
GLASGOW        CLEAR     55  54  98 CALM      30.08R
$$

KYZ024-025-028>034-038-045-046-053-191100-
NORTH CENTRAL KENTUCKY

CITY           SKY/WX    TMP DP  RH WIND       PRES   REMARKS
LOUISVILLE/SDF CLEAR     57  48  72 N3        30.12R
LOUISVILLE/LOU CLEAR     57  48  72 NE3       30.12R
FORT KNOX      CLEAR     56  49  78 NE8       30.09S
$$

KYZ035>037-039>044-047>052-055>060-089>105-191100-
NORTHEAST KENTUCKY

CITY           SKY/WX    TMP DP  RH WIND       PRES   REMARKS
LEXINGTON      CLEAR     56  47  71 E9        30.12S
COVINGTON      CLEAR     56  48  74 E12       30.15S
FRANKFORT      CLEAR     54  48  80 VRB3      30.12R
$$

KYZ054-064>069-076>088-106>120-191100-
SOUTHEAST KENTUCKY

CITY           SKY/WX    TMP DP  RH WIND       PRES   REMARKS
JACKSON        CLEAR     54  49  83 VRB3      30.12R
LONDON         CLEAR     56  51  84 N3        30.11R
SOMERSET       NOT AVBL
MIDDLESBORO    FOG       54  54 100 CALM      30.12R VSB 1/4
MONTICELLO     SUNNY     51  51 100 CALM      30.11R FOG
$$



USA.gov is the U.S. government's official web portal to all federal, state and local government web resources and services.